Location: Newark
(17.1458°N, 89.0741°W)
Time: 07:26:52
(UTC+00:00)

N. Korean satellite - Visible Passes

Search period start: 22 July 2019 00:00
Search period end: 01 August 2019 00:00
Orbit: 456 x 508 km, 97.2° (Epoch: 21 July)

Date Brightness Start Highest point End Pass type
(mag) Time Alt. Az. Time Alt. Az. Time Alt. Az.
24 Jul 9.8 10:51:30 10° ENE 10:53:04 12° E 10:54:37 10° ESE visible
27 Jul 9.3 11:08:10 10° NE 11:11:08 23° E 11:14:06 10° SSE visible
31 Jul 9.5 11:01:27 10° NE 11:04:03 18° E 11:06:37 10° SE visible
